This is the latest recevied weather packets stored in our database for station/object KB3HLL. If no packets are shown the sender has not sent any weather packets the latest 10 day(s).
| Time | Temp. | Humidity | Pressure | Rain* | Wind** | Luminosity | Snow |
|---|---|---|---|---|---|---|---|
| 1777735278 | 6.11° C | 64% | 1014.4 hPa | 0 mm | - | 824 W/m² | - |
| 1777734978 | 6.11° C | 63% | 1014.3 hPa | 0 mm | - | 361 W/m² | - |
| 1777734678 | 6.11° C | 63% | 1014.4 hPa | 0 mm | - | 897 W/m² | - |
| 1777734378 | 6.11° C | 67% | 1014.4 hPa | 0 mm | - | 396 W/m² | - |
| 1777734078 | 5.56° C | 64% | 1014.3 hPa | 0 mm | - | 488 W/m² | - |
| 1777733777 | 5.56° C | 66% | 1014.3 hPa | 0 mm | - | 263 W/m² | - |
| 1777733478 | 5.56° C | 70% | 1014.3 hPa | 0 mm | - | 428 W/m² | - |
| 1777733177 | 5.56° C | 70% | 1014.2 hPa | 0 mm | - | 798 W/m² | - |
| 1777732878 | 5.56° C | 67% | 1014.2 hPa | 0 mm | - | 741 W/m² | - |
| 1777732577 | 5° C | 72% | 1014.2 hPa | 0 mm | - | 801 W/m² | - |
| 1777732277 | 5° C | 73% | 1014.2 hPa | 0 mm | - | 784 W/m² | - |
| 1777731978 | 5° C | 77% | 1014.3 hPa | 0 mm | - | 713 W/m² | - |
| 1777731678 | 5° C | 81% | 1014.4 hPa | 0 mm | - | 582 W/m² | - |
| 1777731149 | 4.44° C | 83% | 1014.3 hPa | 0 mm | - | 786 W/m² | - |
| 1777730778 | 3.89° C | 82% | 1014.4 hPa | 0 mm | - | 620 W/m² | - |
| 1777730477 | 3.89° C | 83% | 1014.4 hPa | 0 mm | - | 391 W/m² | - |
| 1777730177 | 3.89° C | 82% | 1014.4 hPa | 0 mm | - | 558 W/m² | - |
| 1777729878 | 3.89° C | 86% | 1014.4 hPa | 0 mm | - | 594 W/m² | - |
| 1777729577 | 3.89° C | 89% | 1014.5 hPa | 0 mm | - | 562 W/m² | - |
| 1777729278 | 3.33° C | 88% | 1014.5 hPa | 0 mm | - | 566 W/m² | - |
| 1777728978 | 3.33° C | 93% | 1014.6 hPa | 0 mm | - | 466 W/m² | - |
| 1777728678 | 3.33° C | 92% | 1014.7 hPa | 0 mm | - | 425 W/m² | - |
| 1777728378 | 2.78° C | 93% | 1014.8 hPa | 0 mm | - | 501 W/m² | - |
| 1777728078 | 2.78° C | 93% | 1014.8 hPa | 0 mm | - | 566 W/m² | - |
| 1777727779 | 2.78° C | 94% | 1014.7 hPa | 0 mm | - | 367 W/m² | - |
* Rain latest hour (hover to see other rain measurements)
** Current wind speed in m/s (hover to see current wind gust speed)